Regional Weather Roundup
Issued by NWS

Home | Current Version | Previous Version | Text Only | Print | Product List | Glossary On
Versions: 1 2 3 4 5 6 7 8 9 10 11 12 13 14 15 16 17 18 19 20 21 22 23 24 25 26 27 28 29 30 31 32 33 34 35 36 37 38 39 40 41 42 43 44 45 46 47 48 49 50
926
ASUS44 KJAN 202010
RWRMS

MISSISSIPPI HOURLY WEATHER ROUNDUP
NATIONAL WEATHER SERVICE JACKSON MS
200 PM CST SAT DEC 20 2014

NOTE: "FAIR: INDICATES FEW OR NO CLOUDS BELOW 12,000 FEET WITH NO
SIGNIFICANT WEATHER AND/OR OBSTRUCTIONS TO VISIBILITY.

MSZ001>002-007>008-010>013-018>021-025>028-034>036-202100-
NORTHWEST MISSISSIPPI

CITY           SKY/WX    TMP DP  RH WIND       PRES   REMARKS
CLARKSDALE     FAIR      50  39  66 NW6       30.22F
CLEVELAND      FAIR      52  40  63 N12       30.19F
GREENWOOD      SUNNY     57  36  45 NE7       30.17F
GREENVILLE     SUNNY     53  39  59 NE8       30.19F
GRENADA        FAIR      54  36  50 CALM      30.19F
OLIVE BRANCH   PTSUNNY   48  34  57 NE6       30.22F
OXFORD         FAIR      52  32  46 E3        30.21F
TUNICA         CLOUDY    46  36  66 N5        30.23F
$$

MSZ003>006-009-014>017-022>024-029>033-037>039-202100-
NORTHEAST MISSISSIPPI

CITY           SKY/WX    TMP DP  RH WIND       PRES   REMARKS
COLUMBUS AFB   SUNNY     55  35  47 VRB7      30.18F
CORINTH        FAIR      52  32  46 N6        30.19F
GOLDN TRIANGLE SUNNY     54  37  54 NE12      30.17F
STARKVILLE     FAIR      54  37  54 CALM      30.18F
TUPELO         SUNNY     52  33  48 E6        30.19F
$$

MSZ040-058-202100-
CENTRAL MISSISSIPPI

CITY           SKY/WX    TMP DP  RH WIND       PRES   REMARKS
JACKSON INTL   MOSUNNY   56  42  59 N12       30.16F
JACKSON HAWKNS SUNNY     55  41  59 VRB5      30.16F
MERIDIAN KEY   CLOUDY    53  41  63 NE9       30.16F
MERIDIAN NAS   PTSUNNY   53  40  61 NE8       30.17F
RAYMOND        FAIR      57  52  82 E8        30.16F
VICKSBURG      SUNNY     58  40  51 NE10      30.17F
$$

MSZ059>079-202100-
SOUTH MISSISSIPPI

CITY           SKY/WX    TMP DP  RH WIND       PRES   REMARKS
HATTIESBURG    CLOUDY    53  46  77 NE8       30.14F
MCCOMB         CLOUDY    49  44  83 N7        30.14F
NATCHEZ        MOSUNNY   57  43  58 N8        30.14F
PINE BELT      CLOUDY    52  43  71 N8        30.15F
$$

MSZ080>082-202100-
COASTAL MISSISSIPPI

CITY           SKY/WX    TMP DP  RH WIND       PRES   REMARKS
BAY ST LOUIS   CLOUDY    54  45  71 N10       30.11S
BILOXI         CLOUDY    53  49  89 N9        30.10R
PASCAGOULA     CLOUDY    51  48  89 N13       30.10S
GULFPORT       CLOUDY    53  48  83 NE12      30.09F
$$



USA.gov is the U.S. government's official web portal to all federal, state and local government web resources and services.